When you browse on this site, cookies collect data to enhance your experience and personalize the content and advertising you see.
Visit our Privacy Policy to learn more. By continuing to use the site, you agree to this use of cookies and data.
EN

Hourly Weather Hiran

Today, 13 July, Monday

Time Temperature Precipitation Wind Pressure Humidity
00:00 +28°C° 0 mm 8 mps 743 mmHg 70%
01:00 +27°C° 0 mm 8 mps 742 mmHg 72%
02:00 +27°C° 0 mm 8 mps 742 mmHg 73%
03:00 +27°C° 0 mm 8 mps 741 mmHg 75%
04:00 +27°C° 0 mm 8 mps 741 mmHg 76%
05:00 +26°C° 0 mm 7 mps 742 mmHg 77%
06:00 +26°C° 0 mm 7 mps 742 mmHg 79%
07:00 +27°C° 0 mm 8 mps 742 mmHg 72%
08:00 +29°C° 0 mm 9 mps 743 mmHg 66%
09:00 +31°C° 0 mm 10 mps 743 mmHg 60%
10:00 +32°C° 0 mm 10 mps 742 mmHg 55%
11:00 +33°C° 0 mm 10 mps 742 mmHg 50%
12:00 +36°C° 0 mm 10 mps 742 mmHg 45%
13:00 +36°C° 0 mm 10 mps 741 mmHg 44%
14:00 +35°C° 0 mm 9 mps 740 mmHg 43%
15:00 +35°C° 0 mm 9 mps 739 mmHg 42%
16:00 +35°C° 0 mm 9 mps 739 mmHg 44%
17:00 +34°C° 0 mm 9 mps 740 mmHg 45%
18:00 +33°C° 0 mm 8 mps 740 mmHg 47%
19:00 +32°C° 0 mm 9 mps 740 mmHg 51%
20:00 +31°C° 0 mm 9 mps 741 mmHg 54%
21:00 +29°C° 0 mm 9 mps 741 mmHg 58%
22:00 +28°C° 0 mm 8 mps 741 mmHg 61%
23:00 +28°C° 0 mm 8 mps 742 mmHg 64%

Tomorrow, 14 July, Tuesday

Time Temperature Precipitation Wind Pressure Humidity
00:00 +27°C° 0 mm 8 mps 742 mmHg 67%
01:00 +27°C° 0 mm 7 mps 742 mmHg 69%
02:00 +26°C° 0 mm 7 mps 741 mmHg 72%
03:00 +26°C° 0 mm 6 mps 741 mmHg 75%
04:00 +26°C° 0 mm 6 mps 741 mmHg 76%
05:00 +26°C° 0 mm 6 mps 742 mmHg 77%
06:00 +26°C° 0 mm 5 mps 742 mmHg 79%
07:00 +27°C° 0 mm 6 mps 743 mmHg 71%
08:00 +28°C° 0 mm 8 mps 743 mmHg 62%
09:00 +31°C° 0 mm 9 mps 743 mmHg 54%
10:00 +32°C° 0 mm 9 mps 743 mmHg 51%
11:00 +34°C° 0 mm 9 mps 743 mmHg 47%
12:00 +35°C° 0 mm 9 mps 742 mmHg 44%
13:00 +35°C° 0 mm 9 mps 742 mmHg 42%
14:00 +35°C° 0 mm 9 mps 741 mmHg 41%
15:00 +37°C° 0 mm 9 mps 740 mmHg 40%
16:00 +35°C° 0 mm 9 mps 740 mmHg 42%
17:00 +34°C° 0 mm 9 mps 740 mmHg 44%
18:00 +34°C° 0 mm 9 mps 741 mmHg 45%
19:00 +33°C° 0 mm 9 mps 741 mmHg 48%
20:00 +32°C° 0 mm 9 mps 741 mmHg 52%
21:00 +31°C° 0 mm 9 mps 742 mmHg 55%
22:00 +29°C° 0 mm 9 mps 742 mmHg 59%
23:00 +28°C° 0 mm 8 mps 742 mmHg 63%

Day after tomorrow, 15 July, Wednesday

Time Temperature Precipitation Wind Pressure Humidity
00:00 +27°C° 0 mm 8 mps 742 mmHg 67%
01:00 +27°C° 0 mm 8 mps 742 mmHg 69%
02:00 +27°C° 0 mm 7 mps 742 mmHg 71%
03:00 +27°C° 0 mm 7 mps 742 mmHg 73%
04:00 +26°C° 0 mm 7 mps 742 mmHg 74%
05:00 +26°C° 0 mm 6 mps 743 mmHg 75%
06:00 +26°C° 0 mm 5 mps 743 mmHg 76%
07:00 +27°C° 0 mm 6 mps 743 mmHg 71%
08:00 +28°C° 0 mm 7 mps 744 mmHg 65%
09:00 +31°C° 0 mm 9 mps 744 mmHg 60%
10:00 +32°C° 0 mm 9 mps 744 mmHg 56%
11:00 +33°C° 0 mm 9 mps 744 mmHg 52%
12:00 +34°C° 0 mm 9 mps 743 mmHg 48%
13:00 +34°C° 0 mm 9 mps 743 mmHg 45%
14:00 +35°C° 0 mm 9 mps 742 mmHg 43%
15:00 +36°C° 0 mm 10 mps 741 mmHg 40%
16:00 +35°C° 0 mm 9 mps 741 mmHg 42%
17:00 +34°C° 0 mm 9 mps 741 mmHg 44%
18:00 +33°C° 0 mm 9 mps 741 mmHg 46%
19:00 +33°C° 0 mm 8 mps 742 mmHg 49%
20:00 +32°C° 0 mm 8 mps 742 mmHg 53%
21:00 +31°C° 0 mm 8 mps 743 mmHg 56%
22:00 +29°C° 0 mm 8 mps 743 mmHg 60%
23:00 +28°C° 0 mm 8 mps 743 mmHg 63%

16 July, Thursday

Time Temperature Precipitation Wind Pressure Humidity
00:00 +28°C° 0 mm 8 mps 743 mmHg 66%
01:00 +27°C° 0 mm 8 mps 743 mmHg 68%
02:00 +27°C° 0 mm 8 mps 743 mmHg 70%
03:00 +27°C° 0 mm 8 mps 742 mmHg 72%
04:00 +26°C° 0 mm 8 mps 743 mmHg 73%
05:00 +26°C° 0 mm 7 mps 743 mmHg 73%
06:00 +26°C° 0 mm 7 mps 743 mmHg 73%
07:00 +27°C° 0 mm 8 mps 744 mmHg 68%
08:00 +28°C° 0 mm 9 mps 744 mmHg 63%
09:00 +31°C° 0 mm 10 mps 744 mmHg 58%
10:00 +31°C° 0 mm 10 mps 744 mmHg 55%
11:00 +32°C° 0 mm 10 mps 743 mmHg 52%
12:00 +33°C° 0 mm 11 mps 743 mmHg 49%
13:00 +33°C° 0 mm 10 mps 742 mmHg 48%
14:00 +34°C° 0 mm 10 mps 742 mmHg 46%
15:00 +34°C° 0 mm 10 mps 741 mmHg 45%
16:00 +33°C° 0 mm 10 mps 741 mmHg 47%
17:00 +33°C° 0 mm 10 mps 741 mmHg 49%
18:00 +32°C° 0 mm 10 mps 741 mmHg 51%
19:00 +31°C° 0 mm 10 mps 742 mmHg 55%
20:00 +29°C° 0 mm 9 mps 742 mmHg 59%
21:00 +28°C° 0 mm 9 mps 743 mmHg 63%
22:00 +28°C° 0 mm 9 mps 743 mmHg 65%
23:00 +27°C° 0 mm 9 mps 743 mmHg 67%

17 July, Friday

Time Temperature Precipitation Wind Pressure Humidity
00:00 +27°C° 0 mm 9 mps 743 mmHg 69%
01:00 +27°C° 0 mm 9 mps 743 mmHg 69%
02:00 +26°C° 0 mm 9 mps 742 mmHg 70%
03:00 +26°C° 0 mm 9 mps 742 mmHg 70%
04:00 +26°C° 0 mm 8 mps 742 mmHg 70%
05:00 +26°C° 0 mm 8 mps 743 mmHg 70%
06:00 +26°C° 0 mm 8 mps 743 mmHg 71%
07:00 +27°C° 0 mm 8 mps 743 mmHg 66%
08:00 +28°C° 0 mm 9 mps 744 mmHg 60%
09:00 +29°C° 0 mm 10 mps 744 mmHg 55%
10:00 +31°C° 0 mm 10 mps 744 mmHg 50%
11:00 +33°C° 0 mm 11 mps 743 mmHg 44%
12:00 +34°C° 0 mm 11 mps 743 mmHg 39%
13:00 +34°C° 0 mm 11 mps 742 mmHg 40%
14:00 +34°C° 0 mm 10 mps 741 mmHg 41%
15:00 +33°C° 0 mm 10 mps 740 mmHg 43%
16:00 +33°C° 0 mm 10 mps 740 mmHg 44%
17:00 +32°C° 0 mm 9 mps 740 mmHg 46%
18:00 +32°C° 0 mm 9 mps 740 mmHg 47%
19:00 +31°C° 0 mm 8 mps 741 mmHg 50%
20:00 +30°C° 0 mm 7 mps 741 mmHg 52%
21:00 +29°C° 0 mm 7 mps 742 mmHg 55%
22:00 +28°C° 0 mm 8 mps 742 mmHg 58%
23:00 +28°C° 0 mm 9 mps 742 mmHg 62%

18 July, Saturday

Time Temperature Precipitation Wind Pressure Humidity
00:00 +27°C° 0 mm 10 mps 742 mmHg 65%
01:00 +26°C° 0 mm 10 mps 741 mmHg 67%
02:00 +26°C° 0 mm 10 mps 741 mmHg 69%
03:00 +26°C° 0 mm 10 mps 741 mmHg 71%
04:00 +26°C° 0 mm 10 mps 741 mmHg 70%
05:00 +26°C° 0 mm 10 mps 741 mmHg 69%
06:00 +26°C° 0 mm 11 mps 742 mmHg 68%
07:00 +27°C° 0 mm 11 mps 742 mmHg 63%
08:00 +28°C° 0 mm 11 mps 743 mmHg 59%
09:00 +29°C° 0 mm 11 mps 743 mmHg 54%
10:00 +32°C° 0 mm 12 mps 743 mmHg 50%
11:00 +33°C° 0 mm 12 mps 742 mmHg 46%
12:00 +34°C° 0 mm 12 mps 742 mmHg 42%
13:00 +34°C° 0 mm 11 mps 741 mmHg 41%
14:00 +34°C° 0 mm 11 mps 741 mmHg 41%
15:00 +34°C° 0 mm 11 mps 740 mmHg 41%
16:00 +33°C° 0 mm 10 mps 740 mmHg 43%
17:00 +33°C° 0 mm 9 mps 740 mmHg 45%
18:00 +32°C° 0 mm 9 mps 741 mmHg 47%
19:00 +31°C° 0.1 mm 9 mps 741 mmHg 52%
20:00 +29°C° 0.1 mm 9 mps 742 mmHg 57%
21:00 +28°C° 0.1 mm 9 mps 742 mmHg 62%
22:00 +28°C° 0 mm 9 mps 742 mmHg 63%
23:00 +27°C° 0 mm 9 mps 742 mmHg 64%
Show more